Location: Dalton
(34.7700°N, 84.9700°W)
Time: 11:58:44
(UTC-05:00)

Tiangong 2 - Pass Details

Date: 14 October 2017
Orbit: 386 x 390 km, 42.8° (Epoch: 16 December)

Event Time Altitude Azimuth Distance (km) Brightness Sun altitude
Exits shadow 06:29:33 17° 337° (NNW) 1,085 3.1 -16.3°
Maximum altitude 06:30:28 19° 359° (N) 1,014 3.2 -16.1°
Drops below altitude 10° 06:32:51 10° 47° (NE) 1,424 4.6 -15.6°
Sets 06:35:21 0° 67° (ENE) 2,281 6.3 -15.1°
